Location: Bad Rothenbrunn
(47.2167°N, 11.2167°E)
Time: 08:35:12
(UTC+00:00)

Cosmos 2322 Rocket - Visible Passes

Search period start: 21 June 2021 00:00
Search period end: 01 July 2021 00:00
Orbit: 831 x 852 km, 71.0° (Epoch: 20 June)

Date Brightness Start Highest point End Pass type
(mag) Time Alt. Az. Time Alt. Az. Time Alt. Az.
21 Jun 5.8 02:11:02 10° NNE 02:12:30 11° NNE 02:13:57 10° NE visible
21 Jun 4.0 20:31:33 10° WSW 20:36:48 36° NW 20:42:04 10° NNE visible
21 Jun 5.7 22:22:09 10° NNW 22:22:42 10° NNW 22:23:13 10° NNW visible
22 Jun 5.9 01:56:14 10° NNE 01:57:22 11° NNE 01:58:31 10° NE visible
22 Jun 3.9 20:16:26 10° WSW 20:21:43 38° NW 20:27:02 10° NNE visible
22 Jun 5.7 22:06:31 10° NW 22:07:34 10° NNW 22:08:36 10° NNW visible
23 Jun 5.9 01:41:33 10° NNE 01:42:15 10° NNE 01:42:56 10° NE visible
23 Jun 3.9 20:01:19 10° WSW 20:06:39 39° NW 20:12:00 10° NNE visible
23 Jun 5.7 21:51:03 10° NW 21:52:27 11° NNW 21:53:49 10° NNW visible
24 Jun 5.7 21:35:40 10° NW 21:37:19 11° NNW 21:38:58 10° NNW visible
25 Jun 5.8 21:20:19 10° NW 21:22:12 11° NNW 21:24:05 10° NNW visible
26 Jun 4.4 02:37:46 10° NNW 02:42:53 33° NE 02:47:56 10° ESE visible
26 Jun 5.8 21:04:59 10° NW 21:07:05 12° NNW 21:09:10 10° N visible
27 Jun 4.4 02:22:44 10° NNW 02:27:48 31° NE 02:32:47 10° ESE visible
27 Jun 5.8 20:49:41 10° NW 20:51:58 12° NNW 20:54:15 10° N visible
28 Jun 4.4 02:07:44 10° NNW 02:12:43 30° NE 02:17:38 10° ESE visible
28 Jun 5.7 20:34:24 10° WNW 20:36:51 13° NNW 20:39:17 10° N visible
29 Jun 4.4 01:52:42 10° N 01:57:38 29° NE 02:02:31 10° ESE visible
29 Jun 5.6 20:19:07 10° WNW 20:21:44 13° NNW 20:24:21 10° N visible
30 Jun 4.4 01:37:41 10° N 01:42:33 28° NE 01:47:22 10° ESE visible
30 Jun 5.5 20:03:51 10° WNW 20:06:37 14° NW 20:09:23 10° N visible
